Казанбулак

Азербайджан     40°37′58″N   46°40′58″E
темп.,
°C
ветер,
м/с
пор.,
м/с
влажн.,
%
обл.,
%
осадки,
мм/ч
давл.,
гПа
погр.,
м
20 января, ср
ср2001:00+4зюз345398 0.1 1020140
04:00+3зсз235998 0.1 102040
07:00+2зсз375394 0.0 1020203
10:00+3сз574979 0.0 1020355
13:00+6сз674285 0.0 10191142
16:00+7зсз893375 0.0 10181570
19:00+5зсз6124169 0.0 1022558
22:00+4сз484678 0.0 1022177
21 января, чт
чт2101:00+3сз51150100 0.0 1024413
04:00+2з41354100 0.0 1023881
07:00+2зсз7144895 0.0 1026648
10:00+2сз6105297 0.0 10281195
13:00+4ссв36486 0.0 10301057
16:00+6с38373 0.0 10301530
19:00+2юв68720 0.0 1034371
22:00+1вюв468415 0.0 1035256
22 января, пт
пт2201:000юв249152 0.0 1037127
04:00−2юз009526 0.0 103622
07:00−1зсз33900 0.0 103640
10:00+1зсз34750 0.0 1036210
13:00+5сз33520 0.0 1034535
16:00+6сз12390 0.0 1032669
19:00+3ююв01490 0.0 103322
22:00+2юв11530 0.0 103322
23 января, сб
сб2301:000юв11580 0.0 103222
04:00−1всв01630 0.0 103122
07:00−1зсз12620 0.0 103122
10:00+2зсз114633 0.0 103183
13:00+5сз1236100 0.0 1029469
16:00+6ссз113164 0.0 1027592
19:00+3вюв12410 0.0 102822
22:00+2вюв23480 0.0 102823
24 января, вс
вс2401:00+1вюв23570 0.0 102723
04:00−1вюв12730 0.0 102722
07:00−2юв00760 0.0 102622
10:00+2сз00550 0.0 102689
13:00+5сз12390 0.0 1024450
16:00+7сз12310 0.0 1022511
19:00+4всв01410 0.0 102322
22:00+3юв23450 0.0 102422